CCA1397 KSAN-KPHX

Flight info

Callsign CCA1397
Flight time 0h 52m
Altitude 35000
Route ZZOOO4 HOGGZ HYDRR1
Aircraft B738/M-SDE2E3FGHIRWXY/LB1

Departure

Time 2026-04-26 02:01
Airport San Diego International Airport (KSAN)

Arrival

Time 2026-04-26 02:53
Airport Phoenix Sky Harbor International Airport (KPHX)
Time Latitude Longitude Altitude Speed Heading
2026-04-26 01:22 32.73265 -117.19390 23 ft 0 kts 196°
2026-04-26 01:47 32.73276 -117.19387 29 ft 2 kts 183°
2026-04-26 01:47 32.73292 -117.19386 25 ft 2 kts 174°
2026-04-26 01:47 32.73308 -117.19391 26 ft 2 kts 156°
2026-04-26 01:47 32.73311 -117.19392 26 ft 0 kts 152°
2026-04-26 01:48 32.73304 -117.19382 25 ft 2 kts 110°
2026-04-26 01:49 32.73303 -117.19379 25 ft 0 kts 102°
2026-04-26 01:55 32.73300 -117.19361 27 ft 7 kts 101°
2026-04-26 01:55 32.73313 -117.19287 23 ft 11 kts 69°
2026-04-26 01:56 32.73307 -117.19187 23 ft 13 kts 106°
2026-04-26 01:56 32.73282 -117.19087 27 ft 12 kts 107°
2026-04-26 01:56 32.73258 -117.18990 28 ft 12 kts 106°
2026-04-26 01:56 32.73235 -117.18895 27 ft 12 kts 106°
2026-04-26 01:57 32.73213 -117.18802 27 ft 12 kts 105°
2026-04-26 01:57 32.73191 -117.18712 24 ft 11 kts 106°
2026-04-26 01:57 32.73170 -117.18625 25 ft 11 kts 106°
2026-04-26 01:57 32.73147 -117.18532 23 ft 12 kts 106°
2026-04-26 01:58 32.73124 -117.18439 24 ft 12 kts 107°
2026-04-26 01:58 32.73102 -117.18348 24 ft 11 kts 105°
2026-04-26 01:58 32.73081 -117.18260 24 ft 11 kts 106°
2026-04-26 01:58 32.73059 -117.18170 20 ft 12 kts 105°
2026-04-26 01:59 32.73037 -117.18077 21 ft 12 kts 106°
2026-04-26 01:59 32.73015 -117.17986 20 ft 11 kts 106°
2026-04-26 01:59 32.72994 -117.17898 21 ft 11 kts 106°
2026-04-26 01:59 32.72972 -117.17811 18 ft 11 kts 109°
2026-04-26 02:00 32.72949 -117.17726 18 ft 11 kts 98°
2026-04-26 02:00 32.72964 -117.17642 21 ft 10 kts 66°
2026-04-26 02:00 32.73021 -117.17621 22 ft 10 kts 320°
2026-04-26 02:00 32.73051 -117.17704 20 ft 19 kts 287°
2026-04-26 02:01 32.73174 -117.18214 28 ft 107 kts 286°
2026-04-26 02:01 32.73430 -117.19354 140 ft 167 kts 285°
2026-04-26 02:01 32.73752 -117.20714 1243 ft 169 kts 283°
2026-04-26 02:01 32.74086 -117.22039 2457 ft 166 kts 284°
2026-04-26 02:02 32.74402 -117.23357 3366 ft 171 kts 284°
2026-04-26 02:02 32.74762 -117.24825 3828 ft 196 kts 284°
2026-04-26 02:02 32.75154 -117.26426 4463 ft 206 kts 284°
2026-04-26 02:02 32.75554 -117.28072 5321 ft 207 kts 284°
2026-04-26 02:03 32.75951 -117.29709 6046 ft 216 kts 285°
2026-04-26 02:03 32.76394 -117.31549 6455 ft 238 kts 283°
2026-04-26 02:03 32.76415 -117.33510 7256 ft 239 kts 253°
2026-04-26 02:03 32.75621 -117.35198 8169 ft 240 kts 227°
2026-04-26 02:04 32.74224 -117.36308 9039 ft 247 kts 202°
2026-04-26 02:04 32.72501 -117.36514 9921 ft 257 kts 174°
2026-04-26 02:04 32.70831 -117.35672 10704 ft 268 kts 149°
2026-04-26 02:04 32.69481 -117.34092 11488 ft 278 kts 135°
2026-04-26 02:05 32.68284 -117.32265 12254 ft 282 kts 134°
2026-04-26 02:05 32.67084 -117.30414 13036 ft 285 kts 135°
2026-04-26 02:05 32.65848 -117.28560 13809 ft 287 kts 136°
2026-04-26 02:05 32.64584 -117.26698 14483 ft 291 kts 137°
2026-04-26 02:06 32.63373 -117.24731 15108 ft 305 kts 123°
2026-04-26 02:06 32.62808 -117.22185 15448 ft 336 kts 102°
2026-04-26 02:06 32.62582 -117.19320 15621 ft 360 kts 101°
2026-04-26 02:06 32.62354 -117.16270 15786 ft 383 kts 101°
2026-04-26 02:07 32.62087 -117.13072 15943 ft 403 kts 101°
2026-04-26 02:07 32.62133 -117.09654 16223 ft 429 kts 81°
2026-04-26 02:07 32.63110 -117.06274 16839 ft 437 kts 69°
2026-04-26 02:07 32.64288 -117.02918 17460 ft 442 kts 69°
2026-04-26 02:08 32.65445 -116.99507 18035 ft 449 kts 70°
2026-04-26 02:08 32.66524 -116.96004 18557 ft 453 kts 78°
2026-04-26 02:08 32.66887 -116.92313 19065 ft 450 kts 94°
2026-04-26 02:08 32.66899 -116.88594 19650 ft 452 kts 95°
2026-04-26 02:09 32.66907 -116.86110 19984 ft 456 kts 95°
2026-04-26 02:09 32.66972 -116.81036 20671 ft 463 kts 94°
2026-04-26 02:09 32.67057 -116.77238 21176 ft 468 kts 94°
2026-04-26 02:09 32.67141 -116.73353 21667 ft 472 kts 95°
2026-04-26 02:10 32.67119 -116.69459 22170 ft 474 kts 97°
2026-04-26 02:10 32.67032 -116.65536 22702 ft 477 kts 98°
2026-04-26 02:10 32.66931 -116.61576 23185 ft 481 kts 98°
2026-04-26 02:10 32.66867 -116.58881 23500 ft 485 kts 98°
2026-04-26 02:11 32.66751 -116.53568 24065 ft 487 kts 98°
2026-04-26 02:11 32.66699 -116.50852 24416 ft 488 kts 97°
2026-04-26 02:11 32.66642 -116.46813 24814 ft 491 kts 97°
2026-04-26 02:11 32.66584 -116.42750 25177 ft 496 kts 96°
2026-04-26 02:12 32.66715 -116.38625 25537 ft 504 kts 90°
2026-04-26 02:12 32.67081 -116.34511 25898 ft 509 kts 88°
2026-04-26 02:12 32.67541 -116.30331 26279 ft 512 kts 87°
2026-04-26 02:12 32.68006 -116.26126 26636 ft 515 kts 88°
2026-04-26 02:13 32.68443 -116.21890 27088 ft 514 kts 88°
2026-04-26 02:13 32.68843 -116.17676 27523 ft 514 kts 89°
2026-04-26 02:13 32.69220 -116.13437 27822 ft 518 kts 89°
2026-04-26 02:13 32.69592 -116.09178 28189 ft 520 kts 89°
2026-04-26 02:14 32.69968 -116.04879 28393 ft 526 kts 89°
2026-04-26 02:14 32.70353 -116.00545 28595 ft 530 kts 89°
2026-04-26 02:14 32.70754 -115.96186 28945 ft 532 kts 89°
2026-04-26 02:14 32.71156 -115.91865 29213 ft 537 kts 89°
2026-04-26 02:15 32.71568 -115.87424 29275 ft 545 kts 89°
2026-04-26 02:15 32.71983 -115.82937 29548 ft 547 kts 89°
2026-04-26 02:15 32.72398 -115.78435 29917 ft 548 kts 89°
2026-04-26 02:15 32.72811 -115.73939 30268 ft 547 kts 89°
2026-04-26 02:16 32.73219 -115.69457 30585 ft 547 kts 89°
2026-04-26 02:16 32.73625 -115.64949 30848 ft 549 kts 89°
2026-04-26 02:16 32.74030 -115.60455 31266 ft 544 kts 89°
2026-04-26 02:16 32.74429 -115.56017 31795 ft 539 kts 89°
2026-04-26 02:17 32.74825 -115.51580 32043 ft 542 kts 90°
2026-04-26 02:17 32.75124 -115.47114 32207 ft 543 kts 93°
2026-04-26 02:17 32.75268 -115.42628 32458 ft 542 kts 95°
2026-04-26 02:17 32.75334 -115.38156 32817 ft 541 kts 96°
2026-04-26 02:18 32.75381 -115.33686 33183 ft 539 kts 96°
2026-04-26 02:18 32.75436 -115.29236 33520 ft 538 kts 95°
2026-04-26 02:18 32.75509 -115.24797 33869 ft 537 kts 95°
2026-04-26 02:18 32.75597 -115.20422 34224 ft 534 kts 95°
2026-04-26 02:19 32.75694 -115.16030 34580 ft 532 kts 95°
2026-04-26 02:19 32.75794 -115.11647 34826 ft 532 kts 95°
2026-04-26 02:19 32.75891 -115.07221 34801 ft 536 kts 95°
2026-04-26 02:20 32.76081 -114.98370 34785 ft 533 kts 95°
2026-04-26 02:20 32.76262 -114.89635 34799 ft 527 kts 95°
2026-04-26 02:21 32.76431 -114.80912 34811 ft 527 kts 95°
2026-04-26 02:21 32.76595 -114.72185 34802 ft 528 kts 95°
2026-04-26 02:22 32.76755 -114.63458 34801 ft 529 kts 95°
2026-04-26 02:22 32.76901 -114.54724 34797 ft 529 kts 95°
2026-04-26 02:23 32.77020 -114.45953 34452 ft 532 kts 95°
2026-04-26 02:23 32.77079 -114.41575 34213 ft 528 kts 95°
2026-04-26 02:23 32.77138 -114.37219 33997 ft 527 kts 95°
2026-04-26 02:23 32.77192 -114.32912 33735 ft 530 kts 95°
2026-04-26 02:24 32.77245 -114.28512 33482 ft 535 kts 95°
2026-04-26 02:24 32.77298 -114.24054 33181 ft 542 kts 95°
2026-04-26 02:24 32.77352 -114.19568 32631 ft 543 kts 95°
2026-04-26 02:24 32.77408 -114.15093 32124 ft 540 kts 95°
2026-04-26 02:25 32.77462 -114.10640 31605 ft 535 kts 95°
2026-04-26 02:25 32.77523 -114.06233 31127 ft 533 kts 93°
2026-04-26 02:25 32.77825 -114.01824 30629 ft 535 kts 88°
2026-04-26 02:25 32.78332 -113.97445 30160 ft 535 kts 85°
2026-04-26 02:26 32.78906 -113.93086 29664 ft 533 kts 85°
2026-04-26 02:26 32.79459 -113.88788 29127 ft 535 kts 85°
2026-04-26 02:26 32.79978 -113.84390 28592 ft 539 kts 86°
2026-04-26 02:26 32.80463 -113.79957 28063 ft 540 kts 86°
2026-04-26 02:27 32.80935 -113.75532 27540 ft 539 kts 86°
2026-04-26 02:27 32.81562 -113.71140 26978 ft 542 kts 75°
2026-04-26 02:27 32.83051 -113.67029 26476 ft 543 kts 58°
2026-04-26 02:27 32.85326 -113.63485 26012 ft 538 kts 46°
2026-04-26 02:28 32.87854 -113.60196 25536 ft 537 kts 45°
2026-04-26 02:28 32.90397 -113.56928 25059 ft 536 kts 45°
2026-04-26 02:28 32.92911 -113.53660 24578 ft 535 kts 46°
2026-04-26 02:28 32.95398 -113.50363 24135 ft 531 kts 46°
2026-04-26 02:29 32.97824 -113.47096 23672 ft 522 kts 47°
2026-04-26 02:29 33.00172 -113.43912 23197 ft 515 kts 47°
2026-04-26 02:29 33.02531 -113.40712 22648 ft 510 kts 47°
2026-04-26 02:29 33.04863 -113.37554 22111 ft 505 kts 47°
2026-04-26 02:30 33.07175 -113.34427 21603 ft 498 kts 47°
2026-04-26 02:30 33.09460 -113.31339 21079 ft 491 kts 47°
2026-04-26 02:30 33.11705 -113.28306 20581 ft 483 kts 47°
2026-04-26 02:30 33.13913 -113.25319 20089 ft 476 kts 47°
2026-04-26 02:31 33.16088 -113.22374 19608 ft 470 kts 47°
2026-04-26 02:31 33.18203 -113.19507 19147 ft 463 kts 47°
2026-04-26 02:31 33.20313 -113.16643 18796 ft 455 kts 47°
2026-04-26 02:31 33.22384 -113.13831 18440 ft 447 kts 47°
2026-04-26 02:32 33.24420 -113.11065 18096 ft 439 kts 47°
2026-04-26 02:32 33.26418 -113.08348 17689 ft 432 kts 47°
2026-04-26 02:32 33.28388 -113.05669 17314 ft 426 kts 47°
2026-04-26 02:32 33.30331 -113.03032 16927 ft 420 kts 47°
2026-04-26 02:33 33.32251 -113.00432 16542 ft 414 kts 47°
2026-04-26 02:33 33.34146 -112.97870 16159 ft 409 kts 47°
2026-04-26 02:33 33.36019 -112.95343 15794 ft 404 kts 47°
2026-04-26 02:33 33.37876 -112.92840 15427 ft 399 kts 47°
2026-04-26 02:34 33.39717 -112.90364 15063 ft 395 kts 47°
2026-04-26 02:34 33.41533 -112.87926 14820 ft 388 kts 47°
2026-04-26 02:34 33.43271 -112.85591 14789 ft 374 kts 47°
2026-04-26 02:34 33.44995 -112.83275 14784 ft 372 kts 47°
2026-04-26 02:35 33.46483 -112.80747 14772 ft 372 kts 66°
2026-04-26 02:35 33.47158 -112.77783 14790 ft 367 kts 89°
2026-04-26 02:35 33.47067 -112.74762 14806 ft 363 kts 98°
2026-04-26 02:35 33.47206 -112.71714 14797 ft 370 kts 83°
2026-04-26 02:36 33.47702 -112.68684 14791 ft 372 kts 81°
2026-04-26 02:36 33.48253 -112.65653 14787 ft 373 kts 80°
2026-04-26 02:36 33.48815 -112.62614 14790 ft 373 kts 80°
2026-04-26 02:36 33.49381 -112.59583 14787 ft 373 kts 80°
2026-04-26 02:37 33.49944 -112.56586 14778 ft 373 kts 80°
2026-04-26 02:37 33.50479 -112.53552 14768 ft 371 kts 85°
2026-04-26 02:37 33.50749 -112.50460 14775 ft 368 kts 89°
2026-04-26 02:37 33.50936 -112.47450 14762 ft 367 kts 89°
2026-04-26 02:38 33.51111 -112.44434 14745 ft 357 kts 89°
2026-04-26 02:38 33.51276 -112.41528 14751 ft 343 kts 89°
2026-04-26 02:38 33.51434 -112.38733 14745 ft 330 kts 90°
2026-04-26 02:38 33.51591 -112.36047 14752 ft 317 kts 90°
2026-04-26 02:39 33.51573 -112.33478 14734 ft 301 kts 99°
2026-04-26 02:39 33.51413 -112.30980 14480 ft 300 kts 99°
2026-04-26 02:39 33.51249 -112.28497 14243 ft 298 kts 99°
2026-04-26 02:39 33.51083 -112.26033 14011 ft 296 kts 99°
2026-04-26 02:40 33.50917 -112.23588 13783 ft 293 kts 99°
2026-04-26 02:40 33.50752 -112.21159 13552 ft 291 kts 99°
2026-04-26 02:40 33.50589 -112.18773 13291 ft 289 kts 99°
2026-04-26 02:40 33.50424 -112.16380 13029 ft 288 kts 99°
2026-04-26 02:41 33.50259 -112.13993 12740 ft 287 kts 99°
2026-04-26 02:41 33.50088 -112.11600 12350 ft 290 kts 99°
2026-04-26 02:41 33.49909 -112.09179 12015 ft 292 kts 99°
2026-04-26 02:41 33.49731 -112.06757 11728 ft 291 kts 99°
2026-04-26 02:42 33.49555 -112.04343 11460 ft 290 kts 99°
2026-04-26 02:42 33.49382 -112.01947 11216 ft 288 kts 99°
2026-04-26 02:42 33.49212 -111.99561 10975 ft 286 kts 99°
2026-04-26 02:42 33.49044 -111.97190 10729 ft 285 kts 99°
2026-04-26 02:43 33.48701 -111.92488 10233 ft 281 kts 99°
2026-04-26 02:43 33.48522 -111.90165 9995 ft 279 kts 99°
2026-04-26 02:43 33.48338 -111.87829 9550 ft 286 kts 99°
2026-04-26 02:44 33.48143 -111.85458 9066 ft 293 kts 99°
2026-04-26 02:44 33.47936 -111.83002 8584 ft 299 kts 99°
2026-04-26 02:44 33.47721 -111.80509 8259 ft 299 kts 99°
2026-04-26 02:44 33.47509 -111.78075 8136 ft 290 kts 99°
2026-04-26 02:45 33.47295 -111.75649 7597 ft 293 kts 99°
2026-04-26 02:45 33.47075 -111.73239 7145 ft 289 kts 99°
2026-04-26 02:45 33.46852 -111.70866 6657 ft 285 kts 99°
2026-04-26 02:45 33.46608 -111.68529 6181 ft 280 kts 104°
2026-04-26 02:46 33.45847 -111.66443 5656 ft 271 kts 131°
2026-04-26 02:46 33.44405 -111.65074 5162 ft 263 kts 159°
2026-04-26 02:46 33.42647 -111.64716 4680 ft 256 kts 187°
2026-04-26 02:46 33.41012 -111.65426 4201 ft 250 kts 217°
2026-04-26 02:47 33.39984 -111.66982 4056 ft 232 kts 249°
2026-04-26 02:47 33.39842 -111.68808 4006 ft 215 kts 281°
2026-04-26 02:47 33.40285 -111.70441 4006 ft 198 kts 289°
2026-04-26 02:47 33.40760 -111.71923 3989 ft 184 kts 289°
2026-04-26 02:48 33.41228 -111.73359 4006 ft 186 kts 289°
2026-04-26 02:48 33.41691 -111.74786 4003 ft 186 kts 289°
2026-04-26 02:48 33.42161 -111.76215 3990 ft 183 kts 289°
2026-04-26 02:48 33.42622 -111.77612 3994 ft 178 kts 289°
2026-04-26 02:49 33.43080 -111.79000 4012 ft 182 kts 290°
2026-04-26 02:49 33.43544 -111.80427 4021 ft 186 kts 289°
2026-04-26 02:49 33.44019 -111.81861 4011 ft 185 kts 289°
2026-04-26 02:49 33.44490 -111.83279 3999 ft 182 kts 289°
2026-04-26 02:50 33.44859 -111.84718 3926 ft 181 kts 277°
2026-04-26 02:50 33.44647 -111.86112 4079 ft 178 kts 240°
2026-04-26 02:50 33.43943 -111.87374 3799 ft 188 kts 238°
2026-04-26 02:50 33.43270 -111.88686 3728 ft 173 kts 240°
2026-04-26 02:51 33.42678 -111.89851 3817 ft 159 kts 240°
2026-04-26 02:51 33.42134 -111.91076 3732 ft 176 kts 250°
2026-04-26 02:51 33.41867 -111.92517 3469 ft 179 kts 268°
2026-04-26 02:51 33.42046 -111.93976 3168 ft 177 kts 288°
2026-04-26 02:52 33.42473 -111.95356 2714 ft 178 kts 287°
2026-04-26 02:52 33.42722 -111.96792 2280 ft 173 kts 281°
2026-04-26 02:52 33.42924 -111.98117 2017 ft 157 kts 268°
2026-04-26 02:52 33.42857 -111.99368 1644 ft 144 kts 272°
2026-04-26 02:53 33.42882 -112.00541 1177 ft 140 kts 270°
2026-04-26 02:53 33.42893 -112.01642 1130 ft 120 kts 266°
2026-04-26 02:53 33.42889 -112.02236 1125 ft 30 kts 270°
2026-04-26 02:53 33.42912 -112.02473 1119 ft 28 kts 292°
2026-04-26 02:54 33.42992 -112.02602 1117 ft 0 kts 289°